Weather in Norfolk

United States     42°01′56″N   97°25′34″W
temp.,
°C
wind,
m/s
gust,
m/s
humid.,
%
clouds,
%
prec.,
mm/h
press.,
hPa
HPBL,
m
7 may, fri
fri701:00+11ssw22510 0.0 102010
04:00+10w33601 0.0 101923
07:00+8nne34663 0.0 102187
10:00+13ene44525 0.0 1020523
13:00+17e43424 0.0 10181191
16:00+19e44395 0.0 10151704
19:00+18e554647 0.0 10141437
22:00+13ese5115312 0.0 1014380
8 may, sat
sat801:00+12ese61349100 0.0 1014662
04:00+11ese81452100 0.0 1012524
07:00+10ese71460100 0.1 1010609
10:00+10ese81484100 1.3 1009692
13:00+10ese81484100 1.4 1006681
16:00+10ese61085100 0.1 1005640
19:00+9e71194100 2.9 1005520
22:00+7ne71094100 2.7 1007621
9 may, sun
sun901:00+5ne71292100 6.2 1008571
04:00+5nne61091100 0.3 1010701
07:00+5nne61090100 0.3 1013757
10:00+5nne5792100 0.1 1016815
13:00+5ne4592100 0.4 1018752
16:00+7nne3485100 0.1 1018864
19:00+7nw348698 0.3 1020313
22:00+6nnw3688100 0.0 1022363
10 may, mon
mon1001:00+6nw3691100 0.2 1023251
04:00+5nnw379211 0.1 1023182
07:00+4nnw39905 0.1 1025234
10:00+10n3457100 0.0 1025691
13:00+13ne4442100 0.0 10252092
16:00+13ne3343100 0.0 10251718
19:00+12ene3350100 0.0 10251338
22:00+9ese2261100 0.0 102619
11 may, tue
tue1101:00+8se1168100 0.0 102710
04:00+7se2275100 0.0 102817
07:00+7sse2579100 0.0 1028167
10:00+10sse5765100 0.0 1029772
13:00+13sse6750100 0.1 10271827
16:00+12ese5751100 0.1 10251690
19:00+11sse586299 0.4 10251218
22:00+9s476793 0.0 1027922